• Em Portugal
  • Lista de países
  • Para 7 dias
  • Temperatura da água
  • Mapas de satélite
  • Mapa do tempo
  • Widgets de tempo
  • user-avatar
    Iniciar Sessão

    Previsão horária em Njiva

    Hoje, 17 Dezembro, Domingo

    Tempo Temperatura Precipitação Vento Pressão Humidade
    00:00 +26°C° 0,5 mm 2 m/s 667 mmHg 64%
    01:00 +25°C° 0,5 mm 2 m/s 667 mmHg 68%
    02:00 +25°C° 0,2 mm 1 m/s 667 mmHg 69%
    03:00 +25°C° 0,2 mm 1 m/s 667 mmHg 70%
    04:00 +24°C° 0,2 mm 1 m/s 667 mmHg 71%
    05:00 +23°C° 0 mm 0 m/s 667 mmHg 69%
    06:00 +23°C° 0 mm 0 m/s 667 mmHg 66%
    07:00 +24°C° 0 mm 0 m/s 667 mmHg 64%
    08:00 +27°C° 0 mm 1 m/s 668 mmHg 58%
    09:00 +29°C° 0 mm 2 m/s 668 mmHg 53%
    10:00 +30°C° 0 mm 2 m/s 668 mmHg 47%
    11:00 +31°C° 0 mm 2 m/s 668 mmHg 45%
    12:00 +31°C° 0 mm 2 m/s 667 mmHg 43%
    13:00 +32°C° 0 mm 1 m/s 667 mmHg 41%
    14:00 +32°C° 0 mm 1 m/s 666 mmHg 41%
    15:00 +32°C° 0 mm 1 m/s 666 mmHg 41%
    16:00 +31°C° 0 mm 1 m/s 665 mmHg 41%
    17:00 +31°C° 0,2 mm 1 m/s 665 mmHg 45%
    18:00 +30°C° 0,2 mm 1 m/s 665 mmHg 49%
    19:00 +29°C° 0,2 mm 2 m/s 666 mmHg 53%
    20:00 +28°C° 0,5 mm 2 m/s 666 mmHg 57%
    21:00 +27°C° 0,5 mm 2 m/s 666 mmHg 62%
    22:00 +26°C° 0,5 mm 3 m/s 667 mmHg 67%
    23:00 +25°C° 1,5 mm 3 m/s 667 mmHg 70%

    Amanhã, 18 Dezembro, Segunda-feira

    Tempo Temperatura Precipitação Vento Pressão Humidade
    00:00 +25°C° 1,5 mm 3 m/s 666 mmHg 72%
    01:00 +23°C° 1,5 mm 4 m/s 666 mmHg 74%
    02:00 +23°C° 1,6 mm 4 m/s 666 mmHg 76%
    03:00 +22°C° 1,6 mm 3 m/s 666 mmHg 78%
    04:00 +22°C° 1,6 mm 3 m/s 666 mmHg 80%
    05:00 +22°C° 0,9 mm 3 m/s 666 mmHg 80%
    06:00 +23°C° 0,9 mm 2 m/s 666 mmHg 80%
    07:00 +23°C° 0,9 mm 1 m/s 667 mmHg 79%
    08:00 +23°C° 0,7 mm 1 m/s 667 mmHg 77%
    09:00 +24°C° 0,7 mm 1 m/s 667 mmHg 75%
    10:00 +24°C° 0,7 mm 1 m/s 667 mmHg 73%
    11:00 +25°C° 0,4 mm 1 m/s 667 mmHg 71%
    12:00 +25°C° 0,4 mm 1 m/s 666 mmHg 68%
    13:00 +26°C° 0,4 mm 2 m/s 666 mmHg 66%
    14:00 +26°C° 0,5 mm 1 m/s 666 mmHg 67%
    15:00 +25°C° 0,5 mm 1 m/s 665 mmHg 68%
    16:00 +25°C° 0,5 mm 1 m/s 665 mmHg 69%
    17:00 +25°C° 0,2 mm 1 m/s 665 mmHg 71%
    18:00 +24°C° 0,2 mm 1 m/s 665 mmHg 74%
    19:00 +24°C° 0,2 mm 1 m/s 665 mmHg 76%
    20:00 +23°C° 0 mm 1 m/s 665 mmHg 78%
    21:00 +23°C° 0 mm 1 m/s 666 mmHg 79%
    22:00 +23°C° 0 mm 1 m/s 666 mmHg 80%
    23:00 +23°C° 0 mm 1 m/s 666 mmHg 80%

    Depois de amanhã, 19 Dezembro, Terça-feira

    Tempo Temperatura Precipitação Vento Pressão Humidade
    00:00 +23°C° 0 mm 1 m/s 665 mmHg 81%
    01:00 +23°C° 0 mm 1 m/s 665 mmHg 81%
    02:00 +22°C° 0,1 mm 1 m/s 665 mmHg 82%
    03:00 +22°C° 0,1 mm 1 m/s 665 mmHg 83%
    04:00 +22°C° 0,1 mm 1 m/s 664 mmHg 84%
    05:00 +22°C° 0 mm 1 m/s 665 mmHg 82%
    06:00 +23°C° 0 mm 1 m/s 665 mmHg 80%
    07:00 +23°C° 0 mm 1 m/s 666 mmHg 78%
    08:00 +25°C° 0,3 mm 1 m/s 666 mmHg 71%
    09:00 +26°C° 0,3 mm 1 m/s 667 mmHg 64%
    10:00 +28°C° 0,3 mm 2 m/s 667 mmHg 57%
    11:00 +29°C° 0,9 mm 2 m/s 667 mmHg 54%
    12:00 +29°C° 0,9 mm 2 m/s 666 mmHg 51%
    13:00 +30°C° 0,9 mm 2 m/s 666 mmHg 48%
    14:00 +30°C° 0,5 mm 2 m/s 665 mmHg 48%
    15:00 +30°C° 0,5 mm 1 m/s 665 mmHg 48%
    16:00 +30°C° 0,5 mm 1 m/s 665 mmHg 48%
    17:00 +29°C° 1,2 mm 1 m/s 665 mmHg 54%
    18:00 +28°C° 1,2 mm 1 m/s 665 mmHg 60%
    19:00 +26°C° 1,2 mm 2 m/s 665 mmHg 66%
    20:00 +26°C° 1,3 mm 2 m/s 665 mmHg 69%
    21:00 +25°C° 1,3 mm 2 m/s 665 mmHg 72%
    22:00 +25°C° 1,3 mm 2 m/s 666 mmHg 75%
    23:00 +24°C° 0,7 mm 2 m/s 665 mmHg 77%

    20 Dezembro, Quarta-feira

    Tempo Temperatura Precipitação Vento Pressão Humidade
    00:00 +24°C° 0,7 mm 2 m/s 665 mmHg 78%
    01:00 +23°C° 0,7 mm 2 m/s 665 mmHg 80%
    02:00 +23°C° 0,7 mm 2 m/s 665 mmHg 81%
    03:00 +23°C° 0,7 mm 2 m/s 665 mmHg 82%
    04:00 +23°C° 0,7 mm 2 m/s 665 mmHg 84%
    05:00 +23°C° 0,7 mm 2 m/s 665 mmHg 83%
    06:00 +23°C° 0,7 mm 2 m/s 665 mmHg 83%
    07:00 +23°C° 0,7 mm 2 m/s 666 mmHg 83%
    08:00 +23°C° 1,1 mm 2 m/s 666 mmHg 80%
    09:00 +24°C° 1,1 mm 2 m/s 666 mmHg 77%
    10:00 +25°C° 1,1 mm 2 m/s 667 mmHg 74%
    11:00 +25°C° 0,8 mm 2 m/s 666 mmHg 71%
    12:00 +26°C° 0,8 mm 2 m/s 666 mmHg 69%
    13:00 +26°C° 0,8 mm 2 m/s 666 mmHg 66%
    14:00 +27°C° 1,2 mm 2 m/s 665 mmHg 65%
    15:00 +27°C° 1,2 mm 2 m/s 665 mmHg 64%
    16:00 +27°C° 1,2 mm 2 m/s 665 mmHg 64%
    17:00 +26°C° 1,3 mm 2 m/s 666 mmHg 68%
    18:00 +25°C° 1,3 mm 2 m/s 666 mmHg 72%
    19:00 +24°C° 1,3 mm 2 m/s 666 mmHg 76%
    20:00 +24°C° 0,8 mm 2 m/s 667 mmHg 77%
    21:00 +24°C° 0,8 mm 1 m/s 667 mmHg 78%
    22:00 +23°C° 0,8 mm 1 m/s 667 mmHg 80%
    23:00 +23°C° 0,3 mm 2 m/s 667 mmHg 81%

    21 Dezembro, Quinta-feira

    Tempo Temperatura Precipitação Vento Pressão Humidade
    00:00 +23°C° 0,3 mm 2 m/s 666 mmHg 82%
    01:00 +21°C° 0,3 mm 2 m/s 666 mmHg 83%
    02:00 +21°C° 0,1 mm 2 m/s 666 mmHg 84%
    03:00 +21°C° 0,1 mm 2 m/s 666 mmHg 84%
    04:00 +21°C° 0,1 mm 2 m/s 666 mmHg 85%
    05:00 +21°C° 0 mm 2 m/s 666 mmHg 81%
    06:00 +23°C° 0 mm 2 m/s 667 mmHg 78%
    07:00 +23°C° 0 mm 2 m/s 667 mmHg 75%
    08:00 +25°C° 0 mm 2 m/s 667 mmHg 67%
    09:00 +26°C° 0 mm 2 m/s 668 mmHg 59%
    10:00 +28°C° 0 mm 2 m/s 668 mmHg 51%
    11:00 +29°C° 0,1 mm 2 m/s 668 mmHg 48%
    12:00 +30°C° 0,1 mm 2 m/s 667 mmHg 45%
    13:00 +31°C° 0,1 mm 2 m/s 667 mmHg 42%
    14:00 +31°C° 0 mm 2 m/s 666 mmHg 42%
    15:00 +31°C° 0 mm 2 m/s 666 mmHg 42%
    16:00 +31°C° 0 mm 2 m/s 666 mmHg 42%
    17:00 +30°C° 0 mm 2 m/s 666 mmHg 45%
    18:00 +29°C° 0 mm 2 m/s 666 mmHg 47%
    19:00 +28°C° 0 mm 2 m/s 666 mmHg 50%
    20:00 +28°C° 0 mm 2 m/s 666 mmHg 52%
    21:00 +27°C° 0 mm 2 m/s 667 mmHg 55%
    22:00 +27°C° 0 mm 2 m/s 667 mmHg 57%
    23:00 +26°C° 0,2 mm 3 m/s 667 mmHg 59%

    22 Dezembro, Sexta-feira

    Tempo Temperatura Precipitação Vento Pressão Humidade
    00:00 +26°C° 0,2 mm 3 m/s 666 mmHg 60%
    01:00 +25°C° 0,2 mm 3 m/s 666 mmHg 61%
    02:00 +25°C° 0 mm 3 m/s 666 mmHg 61%
    03:00 +24°C° 0 mm 3 m/s 666 mmHg 61%
    04:00 +24°C° 0 mm 2 m/s 666 mmHg 61%
    05:00 +24°C° 0 mm 3 m/s 666 mmHg 59%
    06:00 +25°C° 0 mm 3 m/s 667 mmHg 57%
    07:00 +25°C° 0 mm 3 m/s 667 mmHg 55%
    08:00 +27°C° 0 mm 3 m/s 668 mmHg 50%
    09:00 +28°C° 0 mm 3 m/s 668 mmHg 45%
    10:00 +30°C° 0 mm 3 m/s 668 mmHg 40%
    11:00 +31°C° 0 mm 3 m/s 667 mmHg 38%
    12:00 +33°C° 0 mm 3 m/s 667 mmHg 36%
    13:00 +34°C° 0 mm 3 m/s 666 mmHg 33%
    14:00 +34°C° 0 mm 3 m/s 666 mmHg 33%
    15:00 +34°C° 0 mm 3 m/s 665 mmHg 33%
    16:00 +34°C° 0 mm 3 m/s 665 mmHg 33%
    17:00 +33°C° 0 mm 3 m/s 665 mmHg 36%
    18:00 +31°C° 0 mm 2 m/s 665 mmHg 40%
    19:00 +30°C° 0 mm 2 m/s 665 mmHg 43%
    20:00 +29°C° 0,1 mm 3 m/s 665 mmHg 46%
    21:00 +28°C° 0,1 mm 3 m/s 665 mmHg 50%
    22:00 +27°C° 0,1 mm 4 m/s 665 mmHg 53%
    23:00 +27°C° 0,1 mm 3 m/s 665 mmHg 53%
    Mostrar mais